Year,Month,Day,Hour,Minute,Value (Times are PST for temperature in C)
2013,04,16,00,00,2.60
2013,04,16,00,01,2.60
2013,04,16,00,02,2.60
2013,04,16,00,03,2.50
2013,04,16,00,04,2.50
2013,04,16,00,05,2.50
2013,04,16,00,06,2.50
2013,04,16,00,07,2.40
2013,04,16,00,08,2.40
2013,04,16,00,09,2.40
2013,04,16,00,10,2.40
2013,04,16,00,11,2.40
2013,04,16,00,12,2.40
2013,04,16,00,13,2.40
2013,04,16,00,14,2.30
2013,04,16,00,15,2.30
2013,04,16,00,16,2.30
2013,04,16,00,17,2.30
2013,04,16,00,18,2.30
2013,04,16,00,19,2.30
2013,04,16,00,20,2.30
2013,04,16,00,21,2.20
2013,04,16,00,22,2.20
2013,04,16,00,23,2.20
2013,04,16,00,24,2.20
2013,04,16,00,25,2.20
2013,04,16,00,26,2.20
2013,04,16,00,27,2.20
2013,04,16,00,28,2.20
2013,04,16,00,29,2.20
2013,04,16,00,30,2.10
2013,04,16,00,31,2.10
2013,04,16,00,32,2.10
2013,04,16,00,33,2.10
2013,04,16,00,34,2.10
2013,04,16,00,35,2.10
2013,04,16,00,36,2.10
2013,04,16,00,37,2.00
2013,04,16,00,38,2.00
2013,04,16,00,39,2.00
2013,04,16,00,40,2.00
2013,04,16,00,41,2.00
2013,04,16,00,42,1.90
2013,04,16,00,43,1.90
2013,04,16,00,44,1.90
2013,04,16,00,45,1.90
2013,04,16,00,46,1.90
2013,04,16,00,47,1.90
2013,04,16,00,48,1.90
2013,04,16,00,49,1.90
2013,04,16,00,50,1.90
2013,04,16,00,51,1.80
2013,04,16,00,52,1.80
2013,04,16,00,53,1.80
2013,04,16,00,54,1.80
2013,04,16,00,55,1.80
2013,04,16,00,56,1.80
2013,04,16,00,57,1.80
2013,04,16,00,58,1.80
2013,04,16,00,59,1.80
2013,04,16,01,00,1.80
2013,04,16,01,01,1.70
2013,04,16,01,02,1.70
2013,04,16,01,03,1.70
2013,04,16,01,04,1.70
2013,04,16,01,05,1.70
2013,04,16,01,06,1.70
2013,04,16,01,07,1.70
2013,04,16,01,08,1.60
2013,04,16,01,09,1.60
2013,04,16,01,10,1.60
2013,04,16,01,11,1.60
2013,04,16,01,12,1.60
2013,04,16,01,13,1.50
2013,04,16,01,14,1.50
2013,04,16,01,15,1.50
2013,04,16,01,16,1.40
2013,04,16,01,17,1.40
2013,04,16,01,18,1.40
2013,04,16,01,19,1.40
2013,04,16,01,20,1.40
2013,04,16,01,21,1.40
2013,04,16,01,22,1.40
2013,04,16,01,23,1.40
2013,04,16,01,24,1.40
2013,04,16,01,25,1.40
2013,04,16,01,26,1.40
2013,04,16,01,27,1.30
2013,04,16,01,28,1.30
2013,04,16,01,29,1.30
2013,04,16,01,30,1.30
2013,04,16,01,31,1.30
2013,04,16,01,32,1.30
2013,04,16,01,33,1.30
2013,04,16,01,34,1.30
2013,04,16,01,35,1.30
2013,04,16,01,36,1.20
2013,04,16,01,37,1.20
2013,04,16,01,38,1.20
2013,04,16,01,39,1.20
2013,04,16,01,40,1.20
2013,04,16,01,41,1.20
2013,04,16,01,42,1.10
2013,04,16,01,43,1.10
2013,04,16,01,44,1.10
2013,04,16,01,45,1.10
2013,04,16,01,46,1.10
2013,04,16,01,47,1.10
2013,04,16,01,48,1.10
2013,04,16,01,49,1.10
2013,04,16,01,50,1.00
2013,04,16,01,51,1.00
2013,04,16,01,52,1.00
2013,04,16,01,53,1.00
2013,04,16,01,54,1.00
2013,04,16,01,55,1.00
2013,04,16,01,56,0.90
2013,04,16,01,57,0.90
2013,04,16,01,58,0.90
2013,04,16,01,59,0.90
2013,04,16,02,00,0.90
2013,04,16,02,01,0.90
2013,04,16,02,02,0.90
2013,04,16,02,03,0.90
2013,04,16,02,04,0.90
2013,04,16,02,05,0.90
2013,04,16,02,06,0.80
2013,04,16,02,07,0.80
2013,04,16,02,08,0.80
2013,04,16,02,09,0.80
2013,04,16,02,10,0.80
2013,04,16,02,11,0.80
2013,04,16,02,12,0.80
2013,04,16,02,13,0.80
2013,04,16,02,14,0.80
2013,04,16,02,15,0.80
2013,04,16,02,16,0.70
2013,04,16,02,17,0.70
2013,04,16,02,18,0.70
2013,04,16,02,19,0.70
2013,04,16,02,20,0.70
2013,04,16,02,21,0.70
2013,04,16,02,22,0.70
2013,04,16,02,23,0.70
2013,04,16,02,24,0.70
2013,04,16,02,25,0.70
2013,04,16,02,26,0.70
2013,04,16,02,27,0.70
2013,04,16,02,28,0.60
2013,04,16,02,29,0.60
2013,04,16,02,30,0.60
2013,04,16,02,31,0.60
2013,04,16,02,32,0.60
2013,04,16,02,33,0.50
2013,04,16,02,34,0.50
2013,04,16,02,35,0.50
2013,04,16,02,36,0.50
2013,04,16,02,37,0.50
2013,04,16,02,38,0.50
2013,04,16,02,39,0.40
2013,04,16,02,40,0.40
2013,04,16,02,41,0.40
2013,04,16,02,42,0.40
2013,04,16,02,43,0.40
2013,04,16,02,44,0.40
2013,04,16,02,45,0.30
2013,04,16,02,46,0.30
2013,04,16,02,47,0.30
2013,04,16,02,48,0.30
2013,04,16,02,49,0.30
2013,04,16,02,50,0.30
2013,04,16,02,51,0.30
2013,04,16,02,52,0.30
2013,04,16,02,53,0.30
2013,04,16,02,54,0.30
2013,04,16,02,55,0.20
2013,04,16,02,56,0.20
2013,04,16,02,57,0.20
2013,04,16,02,58,0.20
2013,04,16,02,59,0.20
2013,04,16,03,00,0.20
2013,04,16,03,01,0.10
2013,04,16,03,02,0.10
2013,04,16,03,03,0.10
2013,04,16,03,04,0.10
2013,04,16,03,05,0.10
2013,04,16,03,06,0.10
2013,04,16,03,07,0.10
2013,04,16,03,08,0.10
2013,04,16,03,09,0.10
2013,04,16,03,10,0.10
2013,04,16,03,11,0.00
2013,04,16,03,12,0.00
2013,04,16,03,13,0.00
2013,04,16,03,14,0.00
2013,04,16,03,15,0.00
2013,04,16,03,16,0.00
2013,04,16,03,17,0.00
2013,04,16,03,18,0.00
2013,04,16,03,19,0.00
2013,04,16,03,20,0.00
2013,04,16,03,21,0.00
2013,04,16,03,22,0.00
2013,04,16,03,23,0.00
2013,04,16,03,24,0.00
2013,04,16,03,25,0.00
2013,04,16,03,26,0.00
2013,04,16,03,27,0.00
2013,04,16,03,28,0.00
2013,04,16,03,29,0.00
2013,04,16,03,30,0.00
2013,04,16,03,31,0.00
2013,04,16,03,32,-0.10
2013,04,16,03,33,-0.10
2013,04,16,03,34,-0.10
2013,04,16,03,35,-0.10
2013,04,16,03,36,-0.10
2013,04,16,03,37,-0.10
2013,04,16,03,38,-0.10
2013,04,16,03,39,-0.20
2013,04,16,03,40,-0.20
2013,04,16,03,41,-0.20
2013,04,16,03,42,-0.20
2013,04,16,03,43,-0.20
2013,04,16,03,44,-0.20
2013,04,16,03,45,-0.20
2013,04,16,03,46,-0.20
2013,04,16,03,47,-0.20
2013,04,16,03,48,-0.20
2013,04,16,03,49,-0.20
2013,04,16,03,50,-0.20
2013,04,16,03,51,-0.20
2013,04,16,03,52,-0.20
2013,04,16,03,53,-0.30
2013,04,16,03,54,-0.30
2013,04,16,03,55,-0.30
2013,04,16,03,56,-0.30
2013,04,16,03,57,-0.30
2013,04,16,03,58,-0.30
2013,04,16,03,59,-0.30
2013,04,16,04,00,-0.30
2013,04,16,04,01,-0.30
2013,04,16,04,02,-0.40
2013,04,16,04,03,-0.40
2013,04,16,04,04,-0.40
2013,04,16,04,05,-0.40
2013,04,16,04,06,-0.40
2013,04,16,04,07,-0.40
2013,04,16,04,08,-0.40
2013,04,16,04,09,-0.50
2013,04,16,04,10,-0.50
2013,04,16,04,11,-0.50
2013,04,16,04,12,-0.50
2013,04,16,04,13,-0.50
2013,04,16,04,14,-0.50
2013,04,16,04,15,-0.50
2013,04,16,04,16,-0.60
2013,04,16,04,17,-0.60
2013,04,16,04,18,-0.60
2013,04,16,04,19,-0.60
2013,04,16,04,20,-0.60
2013,04,16,04,21,-0.60
2013,04,16,04,22,-0.60
2013,04,16,04,23,-0.60
2013,04,16,04,24,-0.60
2013,04,16,04,25,-0.70
2013,04,16,04,26,-0.70
2013,04,16,04,27,-0.70
2013,04,16,04,28,-0.70
2013,04,16,04,29,-0.70
2013,04,16,04,30,-0.60
2013,04,16,04,31,-0.60
2013,04,16,04,32,-0.60
2013,04,16,04,33,-0.60
2013,04,16,04,34,-0.60
2013,04,16,04,35,-0.60
2013,04,16,04,36,-0.60
2013,04,16,04,37,-0.60
2013,04,16,04,38,-0.60
2013,04,16,04,39,-0.60
2013,04,16,04,40,-0.70
2013,04,16,04,41,-0.60
2013,04,16,04,42,-0.70
2013,04,16,04,43,-0.70
2013,04,16,04,44,-0.70
2013,04,16,04,45,-0.70
2013,04,16,04,46,-0.70
2013,04,16,04,47,-0.70
2013,04,16,04,48,-0.70
2013,04,16,04,49,-0.70
2013,04,16,04,50,-0.70
2013,04,16,04,51,-0.70
2013,04,16,04,52,-0.70
2013,04,16,04,53,-0.80
2013,04,16,04,54,-0.80
2013,04,16,04,55,-0.80
2013,04,16,04,56,-0.80
2013,04,16,04,57,-0.80
2013,04,16,04,58,-0.80
2013,04,16,04,59,-0.80
2013,04,16,05,00,-0.80
2013,04,16,05,01,-0.80
2013,04,16,05,02,-0.90
2013,04,16,05,03,-0.90
2013,04,16,05,04,-0.90
2013,04,16,05,05,-0.90
2013,04,16,05,06,-0.90
2013,04,16,05,07,-0.90
2013,04,16,05,08,-0.90
2013,04,16,05,09,-1.00
2013,04,16,05,10,-1.00
2013,04,16,05,11,-1.00
2013,04,16,05,12,-1.00
2013,04,16,05,13,-1.00
2013,04,16,05,14,-1.00
2013,04,16,05,15,-1.00
2013,04,16,05,16,-1.00
2013,04,16,05,17,-1.00
2013,04,16,05,18,-1.00
2013,04,16,05,19,-1.00
2013,04,16,05,20,-1.00
2013,04,16,05,21,-1.00
2013,04,16,05,22,-1.00
2013,04,16,05,23,-1.00
2013,04,16,05,24,-1.00
2013,04,16,05,25,-1.00
2013,04,16,05,26,-1.00
2013,04,16,05,27,-1.00
2013,04,16,05,28,-1.00
2013,04,16,05,29,-1.00
2013,04,16,05,30,-1.00
2013,04,16,05,31,-1.00
2013,04,16,05,32,-1.00
2013,04,16,05,33,-1.00
2013,04,16,05,34,-1.00
2013,04,16,05,35,-1.00
2013,04,16,05,36,-1.00
2013,04,16,05,37,-1.00
2013,04,16,05,38,-1.00
2013,04,16,05,39,-1.00
2013,04,16,05,40,-1.00
2013,04,16,05,41,-1.00
2013,04,16,05,42,-1.00
2013,04,16,05,43,-1.00
2013,04,16,05,44,-1.00
2013,04,16,05,45,-1.00
2013,04,16,05,46,-1.00
2013,04,16,05,47,-1.00
2013,04,16,05,48,-1.10
2013,04,16,05,49,-1.10
2013,04,16,05,50,-1.10
2013,04,16,05,51,-1.10
2013,04,16,05,52,-1.10
2013,04,16,05,53,-1.10
2013,04,16,05,54,-1.10
2013,04,16,05,55,-1.10
2013,04,16,05,56,-1.10
2013,04,16,05,57,-1.20
2013,04,16,05,58,-1.20
2013,04,16,05,59,-1.20
2013,04,16,06,00,-1.20
2013,04,16,06,01,-1.20
2013,04,16,06,02,-1.20
2013,04,16,06,03,-1.20
2013,04,16,06,04,-1.20
2013,04,16,06,05,-1.20
2013,04,16,06,06,-1.20
2013,04,16,06,07,-1.20
2013,04,16,06,08,-1.20
2013,04,16,06,09,-1.20
2013,04,16,06,10,-1.20
2013,04,16,06,11,-1.20
2013,04,16,06,12,-1.20
2013,04,16,06,13,-1.20
2013,04,16,06,14,-1.20
2013,04,16,06,15,-1.20
2013,04,16,06,16,-1.20
2013,04,16,06,17,-1.20
2013,04,16,06,18,-1.20
2013,04,16,06,19,-1.20
2013,04,16,06,20,-1.20
2013,04,16,06,21,-1.20
2013,04,16,06,22,-1.20
2013,04,16,06,23,-1.20
2013,04,16,06,24,-1.20
2013,04,16,06,25,-1.20
2013,04,16,06,26,-1.20
2013,04,16,06,27,-1.20
2013,04,16,06,28,-1.20
2013,04,16,06,29,-1.20
2013,04,16,06,30,-1.20
2013,04,16,06,31,-1.20
2013,04,16,06,32,-1.20
2013,04,16,06,33,-1.20
2013,04,16,06,34,-1.20
2013,04,16,06,35,-1.30
2013,04,16,06,36,-1.30
2013,04,16,06,37,-1.30
2013,04,16,06,38,-1.30
2013,04,16,06,39,-1.30
2013,04,16,06,40,-1.30
2013,04,16,06,41,-1.30
2013,04,16,06,42,-1.30
2013,04,16,06,43,-1.30
2013,04,16,06,44,-1.30
2013,04,16,06,45,-1.30
2013,04,16,06,46,-1.30
2013,04,16,06,47,-1.30
2013,04,16,06,48,-1.30
2013,04,16,06,49,-1.30
2013,04,16,06,50,-1.30
2013,04,16,06,51,-1.30
2013,04,16,06,52,-1.30
2013,04,16,06,53,-1.30
2013,04,16,06,54,-1.30
2013,04,16,06,55,-1.30
2013,04,16,06,56,-1.30
2013,04,16,06,57,-1.30
2013,04,16,06,58,-1.30
2013,04,16,06,59,-1.30
2013,04,16,07,00,-1.30
2013,04,16,07,01,-1.30
2013,04,16,07,02,-1.30
2013,04,16,07,03,-1.30
2013,04,16,07,04,-1.30
2013,04,16,07,05,-1.30
2013,04,16,07,06,-1.30
2013,04,16,07,07,-1.30
2013,04,16,07,08,-1.30
2013,04,16,07,09,-1.30
2013,04,16,07,10,-1.20
2013,04,16,07,11,-1.20
2013,04,16,07,12,-1.20
2013,04,16,07,13,-1.20
2013,04,16,07,14,-1.20
2013,04,16,07,15,-1.20
2013,04,16,07,16,-1.20
2013,04,16,07,17,-1.20
2013,04,16,07,18,-1.20
2013,04,16,07,19,-1.20
2013,04,16,07,20,-1.20
2013,04,16,07,21,-1.20
2013,04,16,07,22,-1.20
2013,04,16,07,23,-1.20
2013,04,16,07,24,-1.20
2013,04,16,07,25,-1.20
2013,04,16,07,26,-1.20
2013,04,16,07,27,-1.20
2013,04,16,07,28,-1.20
2013,04,16,07,29,-1.20
2013,04,16,07,30,-1.20
2013,04,16,07,31,-1.20
2013,04,16,07,32,-1.20
2013,04,16,07,33,-1.20
2013,04,16,07,34,-1.20
2013,04,16,07,35,-1.20
2013,04,16,07,36,-1.20
2013,04,16,07,37,-1.20
2013,04,16,07,38,-1.20
2013,04,16,07,39,-1.20
2013,04,16,07,40,-1.20
2013,04,16,07,41,-1.20
2013,04,16,07,42,-1.20
2013,04,16,07,43,-1.20
2013,04,16,07,44,-1.20
2013,04,16,07,45,-1.20
2013,04,16,07,46,-1.20
2013,04,16,07,47,-1.20
2013,04,16,07,48,-1.20
2013,04,16,07,49,-1.20
2013,04,16,07,50,-1.20
2013,04,16,07,51,-1.20
2013,04,16,07,52,-1.10
2013,04,16,07,53,-1.10
2013,04,16,07,54,-1.10
2013,04,16,07,55,-1.10
2013,04,16,07,56,-1.10
2013,04,16,07,57,-1.00
2013,04,16,07,58,-1.00
2013,04,16,07,59,-0.90
2013,04,16,08,00,-0.90
2013,04,16,08,01,-0.80
2013,04,16,08,02,-0.80
2013,04,16,08,03,-0.70
2013,04,16,08,04,-0.60
2013,04,16,08,05,-0.50
2013,04,16,08,06,-0.40
2013,04,16,08,07,-0.30
2013,04,16,08,08,-0.30
2013,04,16,08,09,-0.20
2013,04,16,08,10,-0.10
2013,04,16,08,11,-0.10
2013,04,16,08,12,0.00
2013,04,16,08,13,0.00
2013,04,16,08,14,0.10
2013,04,16,08,15,0.10
2013,04,16,08,16,0.20
2013,04,16,08,17,0.20
2013,04,16,08,18,0.30
2013,04,16,08,19,0.40
2013,04,16,08,20,0.40
2013,04,16,08,21,0.50
2013,04,16,08,22,0.50
2013,04,16,08,23,0.60
2013,04,16,08,24,0.70
2013,04,16,08,25,0.70
2013,04,16,08,26,0.80
2013,04,16,08,27,0.90
2013,04,16,08,28,1.00
2013,04,16,08,29,1.10
2013,04,16,08,30,1.10
2013,04,16,08,31,1.20
2013,04,16,08,32,1.30
2013,04,16,08,33,1.30
2013,04,16,08,34,1.30
2013,04,16,08,35,1.40
2013,04,16,08,36,1.50
2013,04,16,08,37,1.50
2013,04,16,08,38,1.60
2013,04,16,08,39,1.70
2013,04,16,08,40,1.80
2013,04,16,08,41,1.80
2013,04,16,08,42,1.90
2013,04,16,08,43,2.00
2013,04,16,08,44,2.00
2013,04,16,08,45,2.10
2013,04,16,08,46,2.10
2013,04,16,08,47,2.20
2013,04,16,08,48,2.30
2013,04,16,08,49,2.40
2013,04,16,08,50,2.40
2013,04,16,08,51,2.50
2013,04,16,08,52,2.60
2013,04,16,08,53,2.70
2013,04,16,08,54,2.70
2013,04,16,08,55,2.80
2013,04,16,08,56,2.90
2013,04,16,08,57,2.90
2013,04,16,08,58,3.00
2013,04,16,08,59,3.00
2013,04,16,09,00,3.10
2013,04,16,09,01,3.20
2013,04,16,09,02,3.20
2013,04,16,09,03,3.20
2013,04,16,09,04,3.30
2013,04,16,09,05,3.30
2013,04,16,09,06,3.30
2013,04,16,09,07,3.30
2013,04,16,09,08,3.30
2013,04,16,09,09,3.30
2013,04,16,09,10,3.40
2013,04,16,09,11,3.40
2013,04,16,09,12,3.50
2013,04,16,09,13,3.50
2013,04,16,09,14,3.60
2013,04,16,09,15,3.60
2013,04,16,09,16,3.60
2013,04,16,09,17,3.70
2013,04,16,09,18,3.70
2013,04,16,09,19,3.80
2013,04,16,09,20,3.80
2013,04,16,09,21,3.80
2013,04,16,09,22,3.80
2013,04,16,09,23,3.90
2013,04,16,09,24,3.90
2013,04,16,09,25,4.00
2013,04,16,09,26,4.20
2013,04,16,09,27,4.30
2013,04,16,09,28,4.40
2013,04,16,09,29,4.60
2013,04,16,09,30,4.70
2013,04,16,09,31,4.70
2013,04,16,09,32,4.80
2013,04,16,09,33,4.90
2013,04,16,09,34,4.90
2013,04,16,09,35,4.90
2013,04,16,09,36,5.00
2013,04,16,09,37,5.00
2013,04,16,09,38,5.10
2013,04,16,09,39,5.20
2013,04,16,09,40,5.20
2013,04,16,09,41,5.30
2013,04,16,09,42,5.40
2013,04,16,09,43,5.40
2013,04,16,09,44,5.50
2013,04,16,09,45,5.50
2013,04,16,09,46,5.60
2013,04,16,09,47,5.60
2013,04,16,09,48,5.60
2013,04,16,09,49,5.60
2013,04,16,09,50,5.60
2013,04,16,09,51,5.60
2013,04,16,09,52,5.70
2013,04,16,09,53,5.80
2013,04,16,09,54,5.90
2013,04,16,09,55,6.00
2013,04,16,09,56,6.00
2013,04,16,09,57,6.20
2013,04,16,09,58,6.30
2013,04,16,09,59,6.40
2013,04,16,10,00,6.50
2013,04,16,10,01,6.50
2013,04,16,10,02,6.60
2013,04,16,10,03,6.60
2013,04,16,10,04,6.70
2013,04,16,10,05,6.70
2013,04,16,10,06,6.80
2013,04,16,10,07,6.80
2013,04,16,10,08,6.80
2013,04,16,10,09,6.90
2013,04,16,10,10,6.90
2013,04,16,10,11,6.90
2013,04,16,10,12,6.90
2013,04,16,10,13,6.90
2013,04,16,10,14,7.00
2013,04,16,10,15,7.00
2013,04,16,10,16,7.10
2013,04,16,10,17,7.20
2013,04,16,10,18,7.30
2013,04,16,10,19,7.40
2013,04,16,10,20,7.50
2013,04,16,10,21,7.60
2013,04,16,10,22,7.70
2013,04,16,10,23,7.80
2013,04,16,10,24,7.90
2013,04,16,10,25,7.90
2013,04,16,10,26,7.90
2013,04,16,10,27,7.90
2013,04,16,10,28,7.80
2013,04,16,10,29,7.80
2013,04,16,10,30,7.80
2013,04,16,10,31,7.80
2013,04,16,10,32,7.80
2013,04,16,10,33,7.90
2013,04,16,10,34,7.90
2013,04,16,10,35,8.00
2013,04,16,10,36,8.00
2013,04,16,10,37,8.10
2013,04,16,10,38,8.20
2013,04,16,10,39,8.30
2013,04,16,10,40,8.30
2013,04,16,10,41,8.30
2013,04,16,10,42,8.30
2013,04,16,10,43,8.30
2013,04,16,10,44,8.30
2013,04,16,10,45,8.30
2013,04,16,10,46,8.40
2013,04,16,10,47,8.50
2013,04,16,10,48,8.50
2013,04,16,10,49,8.60
2013,04,16,10,50,8.70
2013,04,16,10,51,8.70
2013,04,16,10,52,8.80
2013,04,16,10,53,8.80
2013,04,16,10,54,8.90
2013,04,16,10,55,8.90
2013,04,16,10,56,9.00
2013,04,16,10,57,9.10
2013,04,16,10,58,9.20
2013,04,16,10,59,9.20
2013,04,16,11,00,9.30
2013,04,16,11,01,9.40
2013,04,16,11,02,9.40
2013,04,16,11,03,9.50
2013,04,16,11,04,9.50
2013,04,16,11,05,9.50
2013,04,16,11,06,9.50
2013,04,16,11,07,9.60
2013,04,16,11,08,9.60
2013,04,16,11,09,9.60
2013,04,16,11,10,9.60
2013,04,16,11,11,9.70
2013,04,16,11,12,9.70
2013,04,16,11,13,9.70
2013,04,16,11,14,9.70
2013,04,16,11,15,9.80
2013,04,16,11,16,9.80
2013,04,16,11,17,9.90
2013,04,16,11,18,9.90
2013,04,16,11,19,10.00
2013,04,16,11,20,10.10
2013,04,16,11,21,10.20
2013,04,16,11,22,10.30
2013,04,16,11,23,10.50
2013,04,16,11,24,10.60
2013,04,16,11,25,10.70
2013,04,16,11,26,10.70
2013,04,16,11,27,10.80
2013,04,16,11,28,10.90
2013,04,16,11,29,11.00
2013,04,16,11,30,11.10
2013,04,16,11,31,11.20
2013,04,16,11,32,11.20
2013,04,16,11,33,11.30
2013,04,16,11,34,11.40
2013,04,16,11,35,11.50
2013,04,16,11,36,11.60
2013,04,16,11,37,11.60
2013,04,16,11,38,11.70
2013,04,16,11,39,11.80
2013,04,16,11,40,11.80
2013,04,16,11,41,11.80
2013,04,16,11,42,11.90
2013,04,16,11,43,11.90
2013,04,16,11,44,11.90
2013,04,16,11,45,11.80
2013,04,16,11,46,11.80
2013,04,16,11,47,11.70
2013,04,16,11,48,11.70
2013,04,16,11,49,11.60
2013,04,16,11,50,11.60
2013,04,16,11,51,11.60
2013,04,16,11,52,11.60
2013,04,16,11,53,11.70
2013,04,16,11,54,11.70
2013,04,16,11,55,11.70
2013,04,16,11,56,11.80
2013,04,16,11,57,11.80
2013,04,16,11,58,11.80
2013,04,16,11,59,11.80
2013,04,16,12,00,11.80
2013,04,16,12,01,11.90
2013,04,16,12,02,11.90
2013,04,16,12,03,12.00
2013,04,16,12,04,12.10
2013,04,16,12,05,12.20
2013,04,16,12,06,12.30
2013,04,16,12,07,12.30
2013,04,16,12,08,12.50
2013,04,16,12,09,12.50
2013,04,16,12,10,12.60
2013,04,16,12,11,12.70
2013,04,16,12,12,12.70
2013,04,16,12,13,12.80
2013,04,16,12,14,12.80
2013,04,16,12,15,12.90
2013,04,16,12,16,13.00
2013,04,16,12,17,13.10
2013,04,16,12,18,13.20
2013,04,16,12,19,13.30
2013,04,16,12,20,13.30
2013,04,16,12,21,13.30
2013,04,16,12,22,13.40
2013,04,16,12,23,13.50
2013,04,16,12,24,13.60
2013,04,16,12,25,13.70
2013,04,16,12,26,13.80
2013,04,16,12,27,13.90
2013,04,16,12,28,14.00
2013,04,16,12,29,14.10
2013,04,16,12,30,14.10
2013,04,16,12,31,14.20
2013,04,16,12,32,14.30
2013,04,16,12,33,14.30
2013,04,16,12,34,14.20
2013,04,16,12,35,14.20
2013,04,16,12,36,14.10
2013,04,16,12,37,14.00
2013,04,16,12,38,14.00
2013,04,16,12,39,13.90
2013,04,16,12,40,13.90
2013,04,16,12,41,14.00
2013,04,16,12,42,14.10
2013,04,16,12,43,14.10
2013,04,16,12,44,14.20
2013,04,16,12,45,14.20
2013,04,16,12,46,14.20
2013,04,16,12,47,14.20
2013,04,16,12,48,14.20
2013,04,16,12,49,14.20
2013,04,16,12,50,14.10
2013,04,16,12,51,14.10
2013,04,16,12,52,14.00
2013,04,16,12,53,14.00
2013,04,16,12,54,14.00
2013,04,16,12,55,14.00
2013,04,16,12,56,14.00
2013,04,16,12,57,14.10
2013,04,16,12,58,14.10
2013,04,16,12,59,14.10
2013,04,16,13,00,14.20
2013,04,16,13,01,14.30
2013,04,16,13,02,14.30
2013,04,16,13,03,14.40
2013,04,16,13,04,14.40
2013,04,16,13,05,14.40
2013,04,16,13,06,14.50
2013,04,16,13,07,14.50
2013,04,16,13,08,14.60
2013,04,16,13,09,14.60
2013,04,16,13,10,14.60
2013,04,16,13,11,14.70
2013,04,16,13,12,14.70
2013,04,16,13,13,14.70
2013,04,16,13,14,14.70
2013,04,16,13,15,14.60
2013,04,16,13,16,14.70
2013,04,16,13,17,14.80
2013,04,16,13,18,14.90
2013,04,16,13,19,15.00
2013,04,16,13,20,15.00
2013,04,16,13,21,15.00
2013,04,16,13,22,15.00
2013,04,16,13,23,14.90
2013,04,16,13,24,15.00
2013,04,16,13,25,15.00
2013,04,16,13,26,15.10
2013,04,16,13,27,15.20
2013,04,16,13,28,15.40
2013,04,16,13,29,15.50
2013,04,16,13,30,15.60
2013,04,16,13,31,15.70
2013,04,16,13,32,15.80
2013,04,16,13,33,15.80
2013,04,16,13,34,15.80
2013,04,16,13,35,15.80
2013,04,16,13,36,15.80
2013,04,16,13,37,15.80
2013,04,16,13,38,15.90
2013,04,16,13,39,15.90
2013,04,16,13,40,15.90
2013,04,16,13,41,15.90
2013,04,16,13,42,16.00
2013,04,16,13,43,16.00
2013,04,16,13,44,16.00
2013,04,16,13,45,16.00
2013,04,16,13,46,16.00
2013,04,16,13,47,15.90
2013,04,16,13,48,15.90
2013,04,16,13,49,15.80
2013,04,16,13,50,15.90
2013,04,16,13,51,15.90
2013,04,16,13,52,15.90
2013,04,16,13,53,16.00
2013,04,16,13,54,16.10
2013,04,16,13,55,16.20
2013,04,16,13,56,16.40
2013,04,16,13,57,16.50
2013,04,16,13,58,16.60
2013,04,16,13,59,16.60
2013,04,16,14,00,16.50
2013,04,16,14,01,16.40
2013,04,16,14,02,16.20
2013,04,16,14,03,16.10
2013,04,16,14,04,16.00
2013,04,16,14,05,16.00
2013,04,16,14,06,15.90
2013,04,16,14,07,15.80
2013,04,16,14,08,15.80
2013,04,16,14,09,15.70
2013,04,16,14,10,15.80
2013,04,16,14,11,15.80
2013,04,16,14,12,15.80
2013,04,16,14,13,15.80
2013,04,16,14,14,15.90
2013,04,16,14,15,15.90
2013,04,16,14,16,16.00
2013,04,16,14,17,16.10
2013,04,16,14,18,16.10
2013,04,16,14,19,16.00
2013,04,16,14,20,15.90
2013,04,16,14,21,15.90
2013,04,16,14,22,15.90
2013,04,16,14,23,16.00
2013,04,16,14,24,16.00
2013,04,16,14,25,16.00
2013,04,16,14,26,16.00
2013,04,16,14,27,16.10
2013,04,16,14,28,16.10
2013,04,16,14,29,16.10
2013,04,16,14,30,16.20
2013,04,16,14,31,16.30
2013,04,16,14,32,16.30
2013,04,16,14,33,16.30
2013,04,16,14,34,16.30
2013,04,16,14,35,16.40
2013,04,16,14,36,16.50
2013,04,16,14,37,16.50
2013,04,16,14,38,16.50
2013,04,16,14,39,16.40
2013,04,16,14,40,16.50
2013,04,16,14,41,16.50
2013,04,16,14,42,16.50
2013,04,16,14,43,16.50
2013,04,16,14,44,16.50
2013,04,16,14,45,16.30
2013,04,16,14,46,16.30
2013,04,16,14,47,16.20
2013,04,16,14,48,16.10
2013,04,16,14,49,16.10
2013,04,16,14,50,16.10
2013,04,16,14,51,16.10
2013,04,16,14,52,16.10
2013,04,16,14,53,16.10
2013,04,16,14,54,16.20
2013,04,16,14,55,16.20
2013,04,16,14,56,16.20
2013,04,16,14,57,16.20
2013,04,16,14,58,16.20
2013,04,16,14,59,16.20
2013,04,16,15,00,16.20
2013,04,16,15,01,16.20
2013,04,16,15,02,16.20
2013,04,16,15,03,16.30
2013,04,16,15,04,16.40
2013,04,16,15,05,16.50
2013,04,16,15,06,16.60
2013,04,16,15,07,16.60
2013,04,16,15,08,16.60
2013,04,16,15,09,16.60
2013,04,16,15,10,16.60
2013,04,16,15,11,16.60
2013,04,16,15,12,16.70
2013,04,16,15,13,16.70
2013,04,16,15,14,16.70
2013,04,16,15,15,16.70
2013,04,16,15,16,16.70
2013,04,16,15,17,16.80
2013,04,16,15,18,16.80
2013,04,16,15,19,16.80
2013,04,16,15,20,16.80
2013,04,16,15,21,16.80
2013,04,16,15,22,16.70
2013,04,16,15,23,16.70
2013,04,16,15,24,16.70
2013,04,16,15,25,16.70
2013,04,16,15,26,16.70
2013,04,16,15,27,16.70
2013,04,16,15,28,16.80
2013,04,16,15,29,16.80
2013,04,16,15,30,16.80
2013,04,16,15,31,16.80
2013,04,16,15,32,16.80
2013,04,16,15,33,16.80
2013,04,16,15,34,16.80
2013,04,16,15,35,16.80
2013,04,16,15,36,16.90
2013,04,16,15,37,16.90
2013,04,16,15,38,16.90
2013,04,16,15,39,17.00
2013,04,16,15,40,17.10
2013,04,16,15,41,17.20
2013,04,16,15,42,17.30
2013,04,16,15,43,17.30
2013,04,16,15,44,17.30
2013,04,16,15,45,17.40
2013,04,16,15,46,17.40
2013,04,16,15,47,17.40
2013,04,16,15,48,17.20
2013,04,16,15,49,17.20
2013,04,16,15,50,17.30
2013,04,16,15,51,17.40
2013,04,16,15,52,17.50
2013,04,16,15,53,17.60
2013,04,16,15,54,17.60
2013,04,16,15,55,17.60
2013,04,16,15,56,17.70
2013,04,16,15,57,17.70
2013,04,16,15,58,17.70
2013,04,16,15,59,17.80
2013,04,16,16,00,17.80
2013,04,16,16,01,17.80
2013,04,16,16,02,17.80
2013,04,16,16,03,17.70
2013,04,16,16,04,17.80
2013,04,16,16,05,17.80
2013,04,16,16,06,17.80
2013,04,16,16,07,17.80
2013,04,16,16,08,17.80
2013,04,16,16,09,17.80
2013,04,16,16,10,17.90
2013,04,16,16,11,17.80
2013,04,16,16,12,17.70
2013,04,16,16,13,17.70
2013,04,16,16,14,17.70
2013,04,16,16,15,17.70
2013,04,16,16,16,17.70
2013,04,16,16,17,17.60
2013,04,16,16,18,17.60
2013,04,16,16,19,17.60
2013,04,16,16,20,17.60
2013,04,16,16,21,17.50
2013,04,16,16,22,17.40
2013,04,16,16,23,17.30
2013,04,16,16,24,17.20
2013,04,16,16,25,17.10
2013,04,16,16,26,17.10
2013,04,16,16,27,17.10
2013,04,16,16,28,17.20
2013,04,16,16,29,17.20
2013,04,16,16,30,17.10
2013,04,16,16,31,17.10
2013,04,16,16,32,17.10
2013,04,16,16,33,17.10
2013,04,16,16,34,17.10
2013,04,16,16,35,17.10
2013,04,16,16,36,17.10
2013,04,16,16,37,17.10
2013,04,16,16,38,17.10
2013,04,16,16,39,17.10
2013,04,16,16,40,17.00
2013,04,16,16,41,17.00
2013,04,16,16,42,17.10
2013,04,16,16,43,17.10
2013,04,16,16,44,17.10
2013,04,16,16,45,17.10
2013,04,16,16,46,17.20
2013,04,16,16,47,17.20
2013,04,16,16,48,17.30
2013,04,16,16,49,17.30
2013,04,16,16,50,17.30
2013,04,16,16,51,17.30
2013,04,16,16,52,17.40
2013,04,16,16,53,17.40
2013,04,16,16,54,17.40
2013,04,16,16,55,17.40
2013,04,16,16,56,17.40
2013,04,16,16,57,17.50
2013,04,16,16,58,17.40
2013,04,16,16,59,17.30
2013,04,16,17,00,17.20
2013,04,16,17,01,17.00
2013,04,16,17,02,16.90
2013,04,16,17,03,16.80
2013,04,16,17,04,16.70
2013,04,16,17,05,16.70
2013,04,16,17,06,16.60
2013,04,16,17,07,16.50
2013,04,16,17,08,16.40
2013,04,16,17,09,16.30
2013,04,16,17,10,16.30
2013,04,16,17,11,16.30
2013,04,16,17,12,16.20
2013,04,16,17,13,16.20
2013,04,16,17,14,16.20
2013,04,16,17,15,16.10
2013,04,16,17,16,16.10
2013,04,16,17,17,16.00
2013,04,16,17,18,15.90
2013,04,16,17,19,15.90
2013,04,16,17,20,15.80
2013,04,16,17,21,15.80
2013,04,16,17,22,15.80
2013,04,16,17,23,15.80
2013,04,16,17,24,15.80
2013,04,16,17,25,15.80
2013,04,16,17,26,15.80
2013,04,16,17,27,15.70
2013,04,16,17,28,15.70
2013,04,16,17,29,15.70
2013,04,16,17,30,15.70
2013,04,16,17,31,15.70
2013,04,16,17,32,15.80
2013,04,16,17,33,15.80
2013,04,16,17,34,15.90
2013,04,16,17,35,16.00
2013,04,16,17,36,16.10